Guthrie, OK

8:32 AM CST on February 13, 2016 (GMT -0600)
Guthrie Municipal

Weather History for KGOK - September, 2013

Change the Weather History Date:

Friday, September 20, 2013

  Actual Average (KOKC) Record (KOKC)
Temperature  
Mean Temperature 64 °F 72 °F  
Max Temperature 72 °F 83 °F 100 °F (1954)
Min Temperature 57 °F 62 °F 41 °F (1971)
Degree Days  
Heating Degree Days 0 1  
Month to date heating degree days 5  
Since 1 July heating degree days 5  
Cooling Degree Days 0 8  
Month to date cooling degree days 223  
Year to date cooling degree days 1960  
Growing Degree Days 14 (Base 50)    
Moisture  
Dew Point 60 °F    
Average Humidity 79    
Maximum Humidity 93    
Minimum Humidity 48    
Precipitation  
Precipitation 0.07 in 0.14 in 3.82 in (1990)
Month to date precipitation 2.71  
Year to date precipitation 27.60  
Sea Level Pressure  
Sea Level Pressure 29.99 in    
Wind  
Wind Speed 5 mph (NNE)    
Max Wind Speed 12 mph    
Max Gust Speed 21 mph    
Visibility 9 miles    
Events Rain    
T = Trace of Precipitation, MM = Missing Value Source: NWS Daily Summary

Daily Weather History Graph

Daily Weather History Graph

Search for Another Location

Airport or City:

Trip Planner

Search our weather history database for the weather conditions in past years. The results will help you decide how hot, cold, wet, or windy it might be!

Date:

Astronomy

Sep. 20, 2013 Rise Set
Actual Time 7:16 AM CDT 7:29 PM CDT
Civil Twilight 6:50 AM CDT 7:54 PM CDT
Nautical Twilight 6:20 AM CDT 8:24 PM CDT
Astronomical Twilight 5:50 AM CDT 8:54 PM CDT
Moon 8:08 PM CDT (9/20) 8:28 AM CDT (9/20)
Length of Visible Light 13h 03m
Length of Day
12h 12m
Full, 98% of the Moon is Illuminated
Sep 20
Full
Sep 26
Last Quarter
Oct 4
New
Oct 11
First Quarter
Oct 18
Full

Hourly Weather History & Observations

Time (CDT) Temp. Dew Point Humidity Pressure Visibility Wind Dir Wind Speed Gust Speed Precip Events Conditions
12:53 AM 71.1 °F 66.9 °F 87% 29.95 in 10.0 mi West 5.8 mph - 0.00 in   Mostly Cloudy
1:53 AM 70.0 °F 66.9 °F 90% 29.92 in 7.0 mi South 5.8 mph - 0.06 in Rain Light Rain
2:53 AM 69.1 °F 66.9 °F 93% 29.91 in 10.0 mi North 3.5 mph - 0.00 in   Mostly Cloudy
3:32 AM 69.8 °F 66.2 °F 88% 29.97 in 10.0 mi Calm Calm - 0.00 in Rain Light Rain
3:53 AM 70.0 °F 66.9 °F 90% 29.94 in 8.0 mi North 3.5 mph - 0.00 in Rain Light Rain
4:22 AM 69.8 °F 66.2 °F 88% 29.96 in 10.0 mi Calm Calm - 0.01 in   Mostly Cloudy
4:53 AM 70.0 °F 66.9 °F 90% 29.95 in 10.0 mi East 4.6 mph - 0.01 in   Mostly Cloudy
5:53 AM 70.0 °F 66.9 °F 90% 29.95 in 10.0 mi Calm Calm - N/A   Overcast
6:49 AM 69.8 °F 66.2 °F 88% 29.98 in 8.0 mi North - - N/A   Mostly Cloudy
6:53 AM 69.1 °F 66.0 °F 90% 29.96 in 8.0 mi North - - N/A   Mostly Cloudy
7:04 AM 69.8 °F 66.2 °F 88% 29.99 in 8.0 mi North - - N/A   Mostly Cloudy
7:13 AM 69.8 °F 66.2 °F 88% 29.99 in 8.0 mi Calm Calm - N/A   Mostly Cloudy
7:53 AM 69.1 °F 66.9 °F 93% 29.99 in 9.0 mi North 6.9 mph - N/A   Overcast
8:20 AM 69.8 °F 66.2 °F 88% 30.00 in 8.0 mi NNE 4.6 mph - N/A   Overcast
8:41 AM 66.2 °F 62.6 °F 88% 30.01 in 6.0 mi NNE 10.4 mph 18.4 mph N/A   Overcast
8:53 AM 66.0 °F 62.1 °F 87% 29.99 in 7.0 mi NNE 8.1 mph - N/A   Overcast
9:53 AM 64.9 °F 61.0 °F 87% 30.00 in 9.0 mi NNE 9.2 mph - N/A   Overcast
10:28 AM 66.2 °F 59.0 °F 78% 30.04 in 10.0 mi NNE 8.1 mph - N/A   Overcast
10:53 AM 66.0 °F 60.1 °F 81% 30.02 in 10.0 mi North 8.1 mph - N/A   Overcast
11:09 AM 66.2 °F 60.8 °F 83% 30.05 in 10.0 mi North 5.8 mph - N/A   Overcast
11:20 AM 66.2 °F 60.8 °F 83% 30.04 in 10.0 mi North 9.2 mph - N/A   Overcast
11:53 AM 66.9 °F 59.0 °F 76% 30.03 in 10.0 mi NNE 9.2 mph - N/A   Overcast
12:53 PM 69.1 °F 55.9 °F 63% 30.02 in 10.0 mi NNE 8.1 mph 17.3 mph N/A   Mostly Cloudy
1:00 PM 68.0 °F 55.4 °F 64% 30.03 in 10.0 mi NNE 9.2 mph 19.6 mph N/A   Scattered Clouds
1:53 PM 70.0 °F 55.0 °F 59% 30.00 in 10.0 mi NNE 11.5 mph 20.7 mph N/A   Clear
2:53 PM 71.1 °F 51.1 °F 49% 30.00 in 10.0 mi NE 11.5 mph 19.6 mph N/A   Clear
3:53 PM 72.0 °F 51.1 °F 48% 29.99 in 10.0 mi NE 11.5 mph 16.1 mph N/A   Clear
4:53 PM 71.1 °F 52.0 °F 51% 29.98 in 10.0 mi NNE 5.8 mph - N/A   Clear
5:53 PM 70.0 °F 52.0 °F 53% 29.99 in 10.0 mi North 4.6 mph - N/A   Clear
6:53 PM 69.1 °F 53.1 °F 57% 29.99 in 10.0 mi NNE 3.5 mph - N/A   Clear
7:53 PM 66.0 °F 54.0 °F 65% 29.99 in 10.0 mi Calm Calm - N/A   Clear
8:53 PM 63.0 °F 55.0 °F 75% 30.01 in 10.0 mi Calm Calm - N/A   Clear
9:53 PM 60.1 °F 55.9 °F 86% 30.03 in 10.0 mi Calm Calm - N/A   Clear
10:53 PM 57.9 °F 55.0 °F 90% 30.03 in 10.0 mi Calm Calm - N/A   Clear
11:53 PM 57.0 °F 54.0 °F 89% 30.02 in 10.0 mi Calm Calm - N/A   Clear